HB9KNR Weather Reports


Display with metric or nautical units.
time (UTC)temp
F
wind
direction
speed
MPH
gust
MPH
rain 1hr
in
rain 24hr
in
rain mn
in
humidity
%
barometer
mb
20260902210517 68 0.0 0.0 0.00 0.00 0.00 63 1022.3
20260902205517 68 0.0 1.0 0.00 0.00 0.00 63 1022.2
20260902204557 68 0.0 0.0 0.00 0.00 0.00 62 1022.1
20260902203517 68 0.0 0.0 0.00 0.00 0.00 61 1022.0
20260902202517 69 0.0 0.0 0.00 0.00 0.00 61 1022.0
20260902201517 69 0.0 0.0 0.00 0.00 0.00 60 1021.9
20260902200517 69 0.0 0.0 0.00 0.00 0.00 59 1022.0
20260902195517 70 0.0 0.0 0.00 0.00 0.00 59 1021.8
20260902194517 70 0.0 0.0 0.00 0.00 0.00 58 1021.9
20260902193517 70 0.0 0.0 0.00 0.00 0.00 57 1021.8
20260902192657 71 0.0 0.0 0.00 0.00 0.00 56 1021.6
20260902191517 71 0.0 0.0 0.00 0.00 0.00 56 1021.6
20260902190517 71 0.0 0.0 0.00 0.00 0.00 55 1021.6
20260902185517 72 0.0 0.0 0.00 0.00 0.00 55 1021.2
20260902184517 72 0.0 0.0 0.00 0.00 0.00 53 1021.2
20260902183517 72 0.0 0.0 0.00 0.00 0.00 52 1021.0
20260902182517 73 0.0 0.0 0.00 0.00 0.00 51 1020.8
20260902181517 73 0.0 0.0 0.00 0.00 0.00 50 1020.7
20260902180517 73 0.0 0.0 0.00 0.00 0.00 49 1020.7
20260902175517 73 0.0 0.0 0.00 0.00 0.00 48 1020.5
20260902174517 74 0.0 0.0 0.00 0.00 0.00 47 1020.5
20260902173517 74 0.0 0.0 0.00 0.00 0.00 47 1020.4
20260902172517 75 0.0 0.0 0.00 0.00 0.00 47 1020.4
20260902171537 75 0.0 0.0 0.00 0.00 0.00 47 1020.4
20260902170517 75 0.0 0.0 0.00 0.00 0.00 46 1020.3
20260902165517 76 0.0 0.0 0.00 0.00 0.00 45 1020.2
20260902164517 76 0.0 0.0 0.00 0.00 0.00 45 1020.3
20260902163537 76 0.0 0.0 0.00 0.00 0.00 46 1020.3
20260902162517 77 0.0 0.0 0.00 0.00 0.00 41 1020.3
20260902161517 78 0.0 0.0 0.00 0.00 0.00 41 1020.3
20260902160517 78 0.0 0.0 0.00 0.00 0.00 39 1020.3
20260902155517 79 0.0 4.0 0.00 0.00 0.00 37 1020.3
20260902154517 79 0.0 0.0 0.00 0.00 0.00 42 1020.3
20260902153517 79 0.0 3.0 0.00 0.00 0.00 41 1020.3
20260902152517 79 0.0 2.0 0.00 0.00 0.00 41 1020.3
20260902151517 79 0.0 0.0 0.00 0.00 0.00 43 1020.5
20260902150537 78 0.0 0.0 0.00 0.00 0.00 45 1020.4
20260902145517 77 0.0 0.0 0.00 0.00 0.00 49 1020.5
20260902144517 78 0.0 0.0 0.00 0.00 0.00 47 1020.5
20260902143517 79 0.0 0.0 0.00 0.00 0.00 40 1020.6
20260902142517 79 0.0 0.0 0.00 0.00 0.00 43 1020.6
20260902141517 78 0.0 0.0 0.00 0.00 0.00 48 1020.7
20260902140517 79 0.0 0.0 0.00 0.00 0.00 47 1020.7
20260902135517 78 0.0 1.0 0.00 0.00 0.00 46 1020.7
20260902134517 78 0.0 0.0 0.00 0.00 0.00 50 1020.8
20260902133517 79 0.0 8.0 0.00 0.00 0.00 49 1020.8
20260902132537 79 0.0 1.0 0.00 0.00 0.00 45 1021.1
20260902131517 78 0.0 0.0 0.00 0.00 0.00 47 1021.0
20260902130517 78 0.0 0.0 0.00 0.00 0.00 46 1021.2
20260902125517 77 0.0 1.0 0.00 0.00 0.00 51 1021.2
20260902124517 77 0.0 0.0 0.00 0.00 0.00 54 1021.2
20260902123516 77 0.0 0.0 0.00 0.00 0.00 57 1021.3
20260902122537 77 0.0 0.0 0.00 0.00 0.00 55 1021.3
20260902121517 76 0.0 0.0 0.00 0.00 0.00 56 1021.4
20260902120517 76 0.0 0.0 0.00 0.00 0.00 55 1021.4
20260902115517 76 0.0 0.0 0.00 0.00 0.00 60 1021.6
20260902114536 75 0.0 0.0 0.00 0.00 0.00 63 1021.5
20260902113517 75 0.0 0.0 0.00 0.00 0.00 62 1021.6
20260902112516 74 0.0 0.0 0.00 0.00 0.00 65 1021.8
20260902111516 74 0.0 0.0 0.00 0.00 0.00 67 1022.0
20260902110517 74 0.0 3.0 0.00 0.00 0.00 65 1021.9
20260902105517 74 0.0 0.0 0.00 0.00 0.00 66 1022.1
20260902104517 72 0.0 0.0 0.00 0.00 0.00 67 1022.0
20260902103517 71 0.0 0.0 0.00 0.00 0.00 68 1022.1
20260902102516 71 0.0 0.0 0.00 0.00 0.00 72 1022.3
20260902101517 71 0.0 0.0 0.00 0.00 0.00 69 1022.5
20260902100516 70 0.0 0.0 0.00 0.00 0.00 72 1022.4
20260902095537 70 0.0 0.0 0.00 0.00 0.00 71 1022.5
20260902094517 70 0.0 0.0 0.00 0.00 0.00 71 1022.5
20260902093537 67 0.0 0.0 0.00 0.00 0.00 77 1022.3
20260902092517 68 0.0 0.0 0.00 0.00 0.00 76 1022.3
20260902091517 67 0.0 0.0 0.00 0.00 0.00 78 1022.2
20260902090517 67 0.0 0.0 0.00 0.00 0.00 77 1022.3
20260902085517 68 0.0 0.0 0.00 0.00 0.00 76 1022.2
20260902084537 67 0.0 0.0 0.00 0.00 0.00 77 1022.0
20260902083516 66 0.0 0.0 0.00 0.00 0.00 78 1021.8
20260902082537 66 0.0 0.0 0.00 0.00 0.00 80 1022.0
20260902081517 65 0.0 0.0 0.00 0.00 0.00 81 1021.9
20260902080516 65 0.0 0.0 0.00 0.00 0.00 80 1021.8
20260902075517 64 0.0 0.0 0.00 0.00 0.00 81 1021.8
20260902074516 64 0.0 0.0 0.00 0.00 0.00 84 1021.8
20260902073516 63 0.0 0.0 0.00 0.00 0.00 88 1022.0
20260902072516 63 0.0 0.0 0.00 0.00 0.00 91 1021.8
20260902071516 62 0.0 0.0 0.00 0.00 0.00 92 1021.9
20260902070516 61 0.0 0.0 0.00 0.00 0.00 92 1021.9
20260902065537 60 0.0 0.0 0.00 0.00 0.00 93 1021.9
20260902064536 59 0.0 0.0 0.00 0.00 0.00 93 1022.0
20260902063516 58 0.0 0.0 0.00 0.00 0.00 93 1022.0
20260902062516 57 0.0 0.0 0.00 0.00 0.00 93 1022.0
20260902061517 56 0.0 0.0 0.00 0.00 0.00 93 1021.9
20260902060516 55 0.0 0.0 0.00 0.00 0.00 92 1021.8
20260902055516 55 0.0 0.0 0.00 0.00 0.00 92 1021.8
20260902054516 54 0.0 0.0 0.00 0.00 0.00 92 1021.6
20260902053516 54 0.0 0.0 0.00 0.00 0.00 91 1021.6
20260902052516 54 0.0 0.0 0.00 0.00 0.00 91 1021.6
20260902051536 53 0.0 0.0 0.00 0.00 0.00 90 1021.6
20260902050516 53 0.0 0.0 0.00 0.00 0.00 90 1021.5
20260902045536 53 0.0 0.0 0.00 0.00 0.00 90 1021.6
20260902044516 54 0.0 0.0 0.00 0.00 0.00 90 1021.5
20260902043516 54 0.0 0.0 0.00 0.00 0.00 89 1021.5
20260902042516 54 0.0 0.0 0.00 0.00 0.00 89 1021.5
20260902041516 54 0.0 0.0 0.00 0.00 0.00 89 1021.5
20260902040516 54 0.0 0.0 0.00 0.00 0.00 89 1021.3
20260902035516 54 0.0 0.0 0.00 0.00 0.00 89 1021.4
20260902034516 54 0.0 0.0 0.00 0.00 0.00 89 1021.5
20260902033536 54 0.0 0.0 0.00 0.00 0.00 88 1021.6
20260902032516 54 0.0 0.0 0.00 0.00 0.00 88 1021.5
20260902031517 55 0.0 0.0 0.00 0.00 0.00 88 1021.5
20260902030516 55 0.0 0.0 0.00 0.00 0.00 88 1021.6
20260902025516 55 0.0 0.0 0.00 0.00 0.00 88 1021.7
20260902024516 55 0.0 0.0 0.00 0.00 0.00 88 1021.5
20260902023516 55 0.0 0.0 0.00 0.00 0.00 88 1021.4
20260902022536 55 0.0 0.0 0.00 0.00 0.00 88 1021.5
20260902021516 56 0.0 0.0 0.00 0.00 0.00 87 1021.5
20260902020516 56 0.0 0.0 0.00 0.00 0.00 88 1021.4
20260902015516 56 0.0 0.0 0.00 0.00 0.00 87 1021.6
20260902014536 56 0.0 0.0 0.00 0.00 0.00 87 1021.7
20260902013516 56 0.0 0.0 0.00 0.00 0.00 87 1021.7
20260902012517 56 0.0 0.0 0.00 0.00 0.00 87 1021.7
20260902011516 57 0.0 0.0 0.00 0.00 0.00 87 1021.9
20260902010537 57 0.0 0.0 0.00 0.00 0.00 86 1022.0
20260902005516 57 0.0 0.0 0.00 0.00 0.00 86 1022.0
20260902004516 57 0.0 0.0 0.00 0.00 0.00 86 1021.9
20260902003516 57 0.0 0.0 0.00 0.00 0.00 86 1021.9
20260902002536 57 0.0 0.0 0.00 0.00 0.00 86 1021.7
20260902001516 58 0.0 0.0 0.00 0.00 0.00 86 1021.7
20260902000516 58 0.0 0.0 0.00 0.00 0.00 85 1021.8
20260901235516 58 0.0 0.0 0.00 0.00 0.00 85 1021.9
20260901234516 58 0.0 0.0 0.00 0.00 0.00 85 1021.9
20260901233516 58 0.0 0.0 0.00 0.00 0.00 84 1021.9
20260901232516 58 0.0 0.0 0.00 0.00 0.00 84 1021.9
20260901231516 58 0.0 0.0 0.00 0.00 0.00 84 1021.8
20260901230516 59 0.0 0.0 0.00 0.00 0.00 83 1021.9
20260901225516 59 0.0 0.0 0.00 0.00 0.00 83 1021.9
20260901224536 59 0.0 0.0 0.00 0.00 0.00 83 1021.9
20260901223516 59 0.0 0.0 0.00 0.00 0.00 82 1022.0
20260901222516 59 0.0 0.0 0.00 0.00 0.00 82 1021.9
20260901221516 59 0.0 0.0 0.00 0.00 0.00 81 1022.0
20260901220516 59 0.0 0.0 0.00 0.00 0.00 81 1021.9
20260901215637 60 0.0 0.0 0.00 0.00 0.00 80 1021.9
20260901214517 60 0.0 0.0 0.00 0.00 0.00 80 1022.0
20260901213536 60 0.0 0.0 0.00 0.00 0.00 79 1021.9
20260901212517 60 0.0 0.0 0.00 0.00 0.00 78 1021.8
20260901211516 60 0.0 0.0 0.00 0.00 0.00 77 1021.7